SAS2114 ESMS-ESSA

Flight info

Callsign SAS2114
Flight time N/A
Altitude 39000
Route NEXIL N851 ROXEN DCT MIKNA N851 PELUP Z226 NILUG
Aircraft A319/M-SDE3FGHIRWY/LB1

Departure

Time 2026-04-29 15:48
Airport Malmö Sturup Airport (ESMS)

Arrival

Time N/A
Airport Stockholm-Arlanda Airport (ESSA)
Time Latitude Longitude Altitude Speed Heading
2026-04-29 15:26 55.54012 13.36786 231 ft 0 kts 353°
2026-04-29 15:40 55.54011 13.36786 231 ft 2 kts 353°
2026-04-29 15:40 55.53985 13.36791 231 ft 4 kts 353°
2026-04-29 15:40 55.53959 13.36793 234 ft 4 kts 14°
2026-04-29 15:40 55.53939 13.36773 232 ft 4 kts 70°
2026-04-29 15:41 55.53937 13.36758 234 ft 0 kts 83°
2026-04-29 15:43 55.53938 13.36781 231 ft 6 kts 83°
2026-04-29 15:43 55.53945 13.36890 231 ft 11 kts 83°
2026-04-29 15:43 55.53956 13.37057 231 ft 16 kts 84°
2026-04-29 15:44 55.53954 13.37235 231 ft 15 kts 123°
2026-04-29 15:44 55.53842 13.37281 233 ft 20 kts 173°
2026-04-29 15:44 55.53688 13.37314 233 ft 25 kts 173°
2026-04-29 15:44 55.53499 13.37352 231 ft 29 kts 173°
2026-04-29 15:45 55.53309 13.37392 232 ft 29 kts 173°
2026-04-29 15:45 55.53094 13.37436 234 ft 33 kts 173°
2026-04-29 15:45 55.52869 13.37482 232 ft 27 kts 174°
2026-04-29 15:45 55.52689 13.37516 231 ft 26 kts 174°
2026-04-29 15:46 55.52526 13.37554 232 ft 21 kts 171°
2026-04-29 15:46 55.52388 13.37658 232 ft 20 kts 141°
2026-04-29 15:46 55.52358 13.37700 232 ft 0 kts 142°
2026-04-29 15:47 55.52356 13.37702 232 ft 3 kts 142°
2026-04-29 15:47 55.52323 13.37754 233 ft 9 kts 129°
2026-04-29 15:47 55.52331 13.37865 238 ft 11 kts 39°
2026-04-29 15:48 55.52464 13.37861 239 ft 44 kts 353°
2026-04-29 15:48 55.53003 13.37750 241 ft 109 kts 354°
2026-04-29 15:48 55.53941 13.37560 357 ft 150 kts 348°
2026-04-29 15:48 55.54959 13.37362 1080 ft 146 kts 349°